Modesto, CA

4:28 AM PDT on July 25, 2017 (GMT -0700)
Modesto City-County-Sham

Weather History for KMOD - June, 2013

Change the Weather History Date:

Thursday, June 13, 2013

  Actual Average Record
Temperature  
Mean Temperature 72 °F -  
Max Temperature 87 °F 89 °F 104 °F (1960)
Min Temperature 56 °F 59 °F 44 °F (1944)
Degree Days  
Heating Degree Days 0 0  
Month to date heating degree days 0 0  
Since 1 June heating degree days 0 0  
Since 1 July heating degree days 2148 2168  
Cooling Degree Days 7 9  
Month to date cooling degree days 148 107  
Year to date cooling degree days 394 306  
Since 1 June cooling degree days 148 107  
Growing Degree Days 20 (Base 50)    
Moisture  
Dew Point 41 °F    
Average Humidity 38    
Maximum Humidity 61    
Minimum Humidity 15    
Precipitation  
Precipitation 0.00 in 0.00 in 0.02 in (2009)
Month to date precipitation T 0.08  
Year to date precipitation 3.14 8.71  
Since 1 July precipitation 9.02  
Snow  
Snow 0.00 in - - ()
Month to date snowfall 0.0  
Since 1 June snowfall 0.0  
Since 1 July snowfall 0.0  
Snow Depth -    
Sea Level Pressure  
Sea Level Pressure 29.98 in    
Wind  
Wind Speed 11 mph (NW)    
Max Wind Speed 20 mph    
Max Gust Speed 26 mph    
Visibility 10 miles    
Events      
T = Trace of Precipitation, MM = Missing Value Source: NWS Daily Summary

Daily Weather History Graph

Daily Weather History Graph

Search for Another Location

Airport or City:

Trip Planner

Search our weather history database for the weather conditions in past years. The results will help you decide how hot, cold, wet, or windy it might be!

Date:

Astronomy

Jun. 13, 2013 Rise Set
Actual Time 5:41 AM PDT 8:26 PM PDT
Civil Twilight 5:10 AM PDT 8:57 PM PDT
Nautical Twilight 4:31 AM PDT 9:36 PM PDT
Astronomical Twilight 3:47 AM PDT 10:20 PM PDT
Moon 10:18 AM PDT (6/13) 11:40 PM PDT (6/13)
Length of Visible Light 15h 46m
Length of Day
14h 44m
Waxing Crescent, 22% of the Moon is Illuminated
Jun 13
Waxing Crescent
Jun 16
First Quarter
Jun 23
Full
Jun 29
Last Quarter
Jul 8
New

Hourly Weather History & Observations

Time (PDT) Temp. Dew Point Humidity Pressure Visibility Wind Dir Wind Speed Gust Speed Precip Events Conditions
12:53 AM 63.0 °F 39.9 °F 43% 29.94 in 10.0 mi North 9.2 mph - N/A   Clear
1:53 AM 62.1 °F 39.9 °F 44% 29.95 in 10.0 mi NNW 10.4 mph - N/A   Clear
2:53 AM 60.1 °F 41.0 °F 49% 29.96 in 10.0 mi North 8.1 mph - N/A   Clear
3:53 AM 59.0 °F 42.1 °F 53% 29.96 in 10.0 mi NNW 9.2 mph - N/A   Clear
4:53 AM 55.9 °F 42.1 °F 60% 29.98 in 10.0 mi NNW 6.9 mph - N/A   Clear
5:53 AM 59.0 °F 43.0 °F 55% 29.99 in 10.0 mi North 8.1 mph - N/A   Clear
6:53 AM 61.0 °F 43.0 °F 52% 30.00 in 10.0 mi North 9.2 mph - N/A   Clear
7:53 AM 63.0 °F 44.1 °F 50% 30.02 in 10.0 mi NNW 10.4 mph - N/A   Clear
8:53 AM 68.0 °F 44.1 °F 42% 30.04 in 10.0 mi NNW 9.2 mph - N/A   Clear
9:53 AM 72.0 °F 44.1 °F 37% 30.05 in 10.0 mi NW 9.2 mph - N/A   Clear
10:53 AM 75.0 °F 42.1 °F 31% 30.05 in 10.0 mi NW 13.8 mph - N/A   Clear
11:53 AM 77.0 °F 44.1 °F 31% 30.05 in 10.0 mi NNW 11.5 mph 18.4 mph N/A   Clear
12:53 PM 81.0 °F 46.0 °F 29% 30.03 in 10.0 mi NW 15.0 mph 19.6 mph N/A   Clear
1:53 PM 82.9 °F 45.0 °F 26% 30.02 in 10.0 mi NW 12.7 mph - N/A   Clear
2:53 PM 86.0 °F 37.0 °F 18% 30.01 in 10.0 mi NNW 15.0 mph 23.0 mph N/A   Clear
3:53 PM 86.0 °F 34.0 °F 16% 29.99 in 10.0 mi NW 13.8 mph 25.3 mph N/A   Clear
4:53 PM 86.0 °F 34.0 °F 16% 29.97 in 10.0 mi NNW 15.0 mph 21.9 mph N/A   Clear
5:53 PM 84.9 °F 34.0 °F 16% 29.96 in 10.0 mi NNW 15.0 mph 21.9 mph N/A   Clear
6:53 PM 84.0 °F 37.0 °F 19% 29.95 in 10.0 mi NNW 16.1 mph 23.0 mph N/A   Clear
7:53 PM 82.0 °F 37.0 °F 20% 29.94 in 10.0 mi NW 12.7 mph - N/A   Clear
8:53 PM 78.1 °F 45.0 °F 31% 29.94 in 10.0 mi WNW 12.7 mph - N/A   Clear
9:53 PM 73.9 °F 39.0 °F 28% 29.95 in 10.0 mi WNW 10.4 mph - N/A   Clear
10:53 PM 71.1 °F 37.9 °F 30% 29.94 in 10.0 mi WNW 10.4 mph - N/A   Clear
11:53 PM 70.0 °F 37.0 °F 30% 29.93 in 10.0 mi WNW 12.7 mph - N/A   Clear